Hourly Data Report for March 21, 2017

OTTAWA INTL A
ONTARIO

45°19'00.000" N
75°40'00.000" W
114.90 m
6106001
71628
YOW

Download Data

Hourly Data (March 2017)
Hourly Data Report for March 21, 2017
TIME
LST
Temp Definition
°C
Dew Point Definition
°C
Rel Hum Definition
%
Precip. Amount Definition
mm

Wind Dir Definition
10's deg

Wind Spd Definition
km/h
Visibility Definition
km
Stn Press Definition
kPa
Hmdx Definition


Wind Chill Definition


Weather Definition


00:00 1.5 0.0 90   21 9 16.1 100.05     Snow
01:00 1.3 0.1 92   22 8 16.1 100.05     Cloudy
02:00 1.5 0.2 91   21 9 16.1 99.98     LegendNANA
03:00 1.4 0.1 91   22 11 16.1 99.94     LegendNANA
04:00 1.1 0.1 93   30 9 16.1 99.90     Snow
05:00 0.8 0.4 97   31 8 12.9 99.90     Snow
06:00 1.0 0.4 96   34 10 6.4 99.92     Rain, Snow
07:00 0.5 0.2 98   22 6 6.4 99.93     Rain, Snow
08:00 0.9 0.8 99   18 4 6.4 99.91     Rain, Snow, Fog
09:00 1.6 1.2 97   35 3 6.4 99.90     Rain, Fog
10:00 3.0 0.2 82   9 16 24.1 99.86     Mostly Cloudy
11:00 3.1 0.0 80   9 15 16.1 99.82     LegendNANA
12:00 3.1 0.2 81   11 8 24.1 99.78     LegendNANA
13:00 3.9 0.2 77   20 7 24.1 99.70     Mostly Cloudy
14:00 4.5 -0.1 72   21 10 24.1 99.61     LegendNANA
15:00 5.5 -0.3 66   15 4 24.1 99.50     LegendNANA
16:00 4.9 -0.3 69   23 17 16.1 99.54     Rain
17:00 3.5 0.2 79   15 10 24.1 99.45     LegendNANA
18:00 2.8 0.4 84   12 9 24.1 99.40     LegendNANA
19:00 3.5 0.0 78   8 7 24.1 99.41     Mostly Cloudy
20:00 3.6 -1.4 70   29 28 24.1 99.48     LegendNANA
21:00 0.7 -1.9 83   33 41 16.1 99.62     Rain
22:00 -1.8 -7.0 68   33 45 24.1 99.75   -10 Mostly Cloudy
23:00 -3.9 -9.8 64   33 47 24.1 99.95   -13 LegendNANA

Notes on Data Quality.

Legend

  • E = Estimated
  • M = Missing
  • NA = Not Available*
  • [empty] = Indicates an unobserved value
Date modified: